User: anonymous   Login
Location: Killarney Provincial Park Observatory
(46.0124°N, 81.4000°W)
Time: 03:08:40
(UTC-04:00)
Language:

Iridium 22 - Orbit

View from above orbital plane
View from above orbital plane
View from above satellite
View from above satellite

Ground track
Ground track

The orbit data is extracted from the following two-line orbital elements,

1 24907U 97043E   15116.40208468  .00000436  00000-0  14862-3 0  9998
2 24907 086.4008 223.1950 0002226 096.9438 330.8314 14.34212645925632
Epoch (UTC): 26 April 2015 09:39:00
Eccentricity: 0.0002226
inclination: 86.4008°
perigee height: 776 km
apogee height: 779 km
right ascension of ascending node: 223.1950°
argument of perigee: 96.9438°
revolutions per day: 14.34212645
mean anomaly at epoch: 330.8314°
orbit number at epoch: 92563

The dashed part of the orbit path shows where the satellite is in the earth's shadow,  

DLR